When you browse on this site, cookies collect data to enhance your experience and personalize the content and advertising you see.
Visit our Privacy Policy to learn more. By continuing to use the site, you agree to this use of cookies and data.
  • In Lithuania
  • List of Countries
  • For 7 days
  • Water Temperature
  • Weather Map
  • Weather Widgets
  • user-avatar
    Login

    Hourly Weather Manchester

    Today, 27 February, Thursday

    Time Temperature Precipitation Wind Pressure Humidity
    00:00 +1°C° 0 mm 4 mps 745 mmHg 85%
    01:00 +2°C° 0.4 mm 3 mps 745 mmHg 88%
    02:00 +1°C° 0.4 mm 3 mps 744 mmHg 92%
    03:00 +1°C° 0.4 mm 3 mps 744 mmHg 96%
    04:00 +2°C° 1 mm 2 mps 743 mmHg 96%
    05:00 +2°C° 1 mm 2 mps 743 mmHg 96%
    06:00 +2°C° 0 mm 2 mps 743 mmHg 96%
    07:00 +1°C° 0.2 mm 3 mps 743 mmHg 92%
    08:00 +1°C° 0.2 mm 4 mps 744 mmHg 87%
    09:00 +1°C° 0.2 mm 5 mps 744 mmHg 83%
    10:00 +2°C° 0 mm 6 mps 745 mmHg 77%
    11:00 +2°C° 0 mm 6 mps 745 mmHg 72%
    12:00 +3°C° 0 mm 7 mps 746 mmHg 66%
    13:00 +3°C° 0.1 mm 7 mps 746 mmHg 66%
    14:00 +3°C° 0.1 mm 7 mps 747 mmHg 65%
    15:00 +2°C° 0.1 mm 8 mps 748 mmHg 65%
    16:00 +3°C° 0 mm 7 mps 749 mmHg 68%
    17:00 +2°C° 0 mm 6 mps 749 mmHg 70%
    18:00 +2°C° 0 mm 5 mps 750 mmHg 73%
    19:00 +1°C° 0 mm 4 mps 751 mmHg 75%
    20:00 +1°C° 0 mm 4 mps 752 mmHg 77%
    21:00 +2°C° 0 mm 3 mps 752 mmHg 80%
    22:00 +2°C° 0 mm 3 mps 753 mmHg 81%
    23:00 +1°C° 0 mm 3 mps 753 mmHg 82%

    Tomorrow, 28 February, Friday

    Time Temperature Precipitation Wind Pressure Humidity
    00:00 +1°C° 0 mm 3 mps 753 mmHg 84%
    01:00 +1°C° 0 mm 3 mps 753 mmHg 83%
    02:00 +1°C° 0 mm 3 mps 752 mmHg 83%
    03:00 +1°C° 0 mm 3 mps 752 mmHg 82%
    04:00 +1°C° 0 mm 3 mps 752 mmHg 81%
    05:00 +1°C° 0 mm 4 mps 751 mmHg 81%
    06:00 +1°C° 0 mm 4 mps 751 mmHg 80%
    07:00 +1°C° 0.5 mm 5 mps 750 mmHg 85%
    08:00 0°C° 0.5 mm 5 mps 748 mmHg 90%
    09:00 -1°C° 0.5 mm 6 mps 747 mmHg 95%
    10:00 0°C° 1.6 mm 7 mps 746 mmHg 94%
    11:00 0°C° 1.6 mm 7 mps 744 mmHg 94%
    12:00 0°C° 1.6 mm 8 mps 743 mmHg 93%
    13:00 +2°C° 0.2 mm 7 mps 742 mmHg 94%
    14:00 +4°C° 0.2 mm 6 mps 740 mmHg 95%
    15:00 +6°C° 0.2 mm 5 mps 739 mmHg 96%
    16:00 +7°C° 0.6 mm 5 mps 739 mmHg 96%
    17:00 +7°C° 0.6 mm 6 mps 738 mmHg 95%
    18:00 +8°C° 0.6 mm 6 mps 737 mmHg 94%
    19:00 +8°C° 0.6 mm 6 mps 737 mmHg 94%
    20:00 +8°C° 0.6 mm 7 mps 736 mmHg 94%
    21:00 +8°C° 0.6 mm 7 mps 735 mmHg 94%
    22:00 +8°C° 0.3 mm 7 mps 735 mmHg 93%
    23:00 +8°C° 0.3 mm 7 mps 734 mmHg 92%

    Day after tomorrow, 29 February, Saturday

    Time Temperature Precipitation Wind Pressure Humidity
    00:00 +9°C° 0.3 mm 8 mps 733 mmHg 91%
    01:00 +9°C° 0.3 mm 8 mps 731 mmHg 89%
    02:00 +8°C° 0.3 mm 9 mps 730 mmHg 87%
    03:00 +8°C° 0.3 mm 9 mps 728 mmHg 84%
    04:00 +8°C° 0.7 mm 9 mps 728 mmHg 86%
    05:00 +7°C° 0.7 mm 8 mps 727 mmHg 88%
    06:00 +7°C° 0.7 mm 8 mps 726 mmHg 89%
    07:00 +5°C° 0.6 mm 8 mps 727 mmHg 87%
    08:00 +4°C° 0.6 mm 8 mps 727 mmHg 86%
    09:00 +1°C° 0.6 mm 8 mps 727 mmHg 84%
    10:00 +1°C° 0.1 mm 9 mps 728 mmHg 74%
    11:00 +2°C° 0.1 mm 9 mps 728 mmHg 65%
    12:00 +2°C° 0.1 mm 9 mps 729 mmHg 55%
    13:00 +2°C° 0.1 mm 9 mps 729 mmHg 56%
    14:00 +2°C° 0.1 mm 9 mps 728 mmHg 56%
    15:00 +2°C° 0.1 mm 9 mps 728 mmHg 57%
    16:00 +1°C° 0.1 mm 9 mps 728 mmHg 62%
    17:00 +1°C° 0.1 mm 9 mps 728 mmHg 67%
    18:00 +1°C° 0.1 mm 9 mps 727 mmHg 72%
    19:00 +1°C° 0 mm 10 mps 727 mmHg 70%
    20:00 +1°C° 0 mm 10 mps 727 mmHg 68%
    21:00 +1°C° 0 mm 10 mps 727 mmHg 67%
    22:00 +1°C° 0 mm 10 mps 726 mmHg 65%
    23:00 +1°C° 0 mm 11 mps 726 mmHg 63%

    1 March, Sunday

    Time Temperature Precipitation Wind Pressure Humidity
    00:00 +1°C° 0 mm 11 mps 726 mmHg 61%
    01:00 +1°C° 0 mm 11 mps 726 mmHg 64%
    02:00 +1°C° 0 mm 11 mps 726 mmHg 67%
    03:00 0°C° 0 mm 12 mps 726 mmHg 71%
    04:00 +1°C° 0 mm 11 mps 726 mmHg 68%
    05:00 +1°C° 0 mm 10 mps 726 mmHg 66%
    06:00 +1°C° 0 mm 10 mps 727 mmHg 64%
    07:00 +1°C° 0 mm 10 mps 727 mmHg 63%
    08:00 +1°C° 0 mm 10 mps 727 mmHg 61%
    09:00 +2°C° 0 mm 10 mps 727 mmHg 60%
    10:00 +2°C° 0 mm 10 mps 728 mmHg 60%
    11:00 +2°C° 0 mm 11 mps 728 mmHg 61%
    12:00 +3°C° 0 mm 11 mps 728 mmHg 61%
    13:00 +3°C° 0.1 mm 10 mps 728 mmHg 61%
    14:00 +3°C° 0.1 mm 10 mps 729 mmHg 60%
    15:00 +5°C° 0.1 mm 10 mps 729 mmHg 59%
    16:00 +3°C° 0 mm 9 mps 729 mmHg 60%
    17:00 +2°C° 0 mm 8 mps 729 mmHg 62%
    18:00 +3°C° 0 mm 7 mps 730 mmHg 63%
    19:00 +3°C° 0 mm 7 mps 730 mmHg 65%
    20:00 +2°C° 0 mm 7 mps 730 mmHg 67%
    21:00 +2°C° 0 mm 7 mps 731 mmHg 68%
    22:00 +2°C° 0 mm 7 mps 731 mmHg 71%
    23:00 +2°C° 0 mm 6 mps 732 mmHg 74%

    2 March, Monday

    Time Temperature Precipitation Wind Pressure Humidity
    00:00 +2°C° 0 mm 6 mps 732 mmHg 77%
    01:00 +1°C° 0.2 mm 6 mps 733 mmHg 80%
    02:00 +1°C° 0.2 mm 6 mps 733 mmHg 83%
    03:00 +1°C° 0.2 mm 5 mps 733 mmHg 86%
    04:00 0°C° 0.1 mm 5 mps 734 mmHg 84%
    05:00 0°C° 0.1 mm 5 mps 734 mmHg 81%
    06:00 0°C° 0.1 mm 4 mps 734 mmHg 79%
    07:00 +1°C° 0.1 mm 5 mps 735 mmHg 76%
    08:00 +1°C° 0.1 mm 5 mps 735 mmHg 73%
    09:00 +2°C° 0.1 mm 6 mps 735 mmHg 70%
    10:00 +3°C° 0.2 mm 6 mps 736 mmHg 67%
    11:00 +3°C° 0.2 mm 7 mps 736 mmHg 64%
    12:00 +4°C° 0.2 mm 7 mps 736 mmHg 61%
    13:00 +4°C° 0.2 mm 7 mps 737 mmHg 60%
    14:00 +4°C° 0.2 mm 7 mps 737 mmHg 59%
    15:00 +4°C° 0.2 mm 7 mps 737 mmHg 57%
    16:00 +3°C° 0.1 mm 6 mps 738 mmHg 61%
    17:00 +2°C° 0.1 mm 6 mps 738 mmHg 64%
    18:00 +1°C° 0.1 mm 5 mps 739 mmHg 68%
    19:00 +1°C° 0.1 mm 5 mps 740 mmHg 71%
    20:00 +1°C° 0.1 mm 5 mps 740 mmHg 74%
    21:00 +1°C° 0.1 mm 5 mps 741 mmHg 77%
    22:00 +1°C° 0.1 mm 5 mps 741 mmHg 77%
    23:00 0°C° 0.1 mm 4 mps 741 mmHg 78%

    3 March, Tuesday

    Time Temperature Precipitation Wind Pressure Humidity
    00:00 0°C° 0.1 mm 4 mps 742 mmHg 79%
    01:00 0°C° 0 mm 4 mps 742 mmHg 80%
    02:00 0°C° 0 mm 4 mps 742 mmHg 80%
    03:00 0°C° 0 mm 4 mps 742 mmHg 80%
    04:00 -1°C° 0 mm 4 mps 742 mmHg 80%
    05:00 0°C° 0 mm 3 mps 741 mmHg 81%
    06:00 0°C° 0 mm 3 mps 741 mmHg 81%
    07:00 +1°C° 0 mm 3 mps 741 mmHg 79%
    08:00 +1°C° 0 mm 3 mps 741 mmHg 76%
    09:00 +2°C° 0 mm 3 mps 741 mmHg 73%
    10:00 +3°C° 0.1 mm 3 mps 741 mmHg 69%
    11:00 +4°C° 0.1 mm 3 mps 741 mmHg 65%
    12:00 +5°C° 0.1 mm 4 mps 741 mmHg 61%
    13:00 +5°C° 0.1 mm 3 mps 741 mmHg 61%
    14:00 +5°C° 0.1 mm 3 mps 741 mmHg 60%
    15:00 +5°C° 0.1 mm 3 mps 741 mmHg 60%
    16:00 +5°C° 0 mm 2 mps 741 mmHg 66%
    17:00 +5°C° 0 mm 2 mps 741 mmHg 71%
    18:00 +5°C° 0 mm 1 mps 741 mmHg 76%
    19:00 +4°C° 0 mm 1 mps 742 mmHg 77%
    20:00 +4°C° 0 mm 1 mps 742 mmHg 79%
    21:00 +3°C° 0 mm 0 mps 742 mmHg 80%
    22:00 +4°C° 0 mm 1 mps 743 mmHg 82%
    23:00 +4°C° 0 mm 1 mps 743 mmHg 83%
    Show more